Location: Unspecified
(0.0000°N, 0.0000°E)
Time: 00:22:18
(UTC+01:00)

Iridium 75 - Visible Passes

Search period start: 20 February 2017 00:00
Search period end: 02 March 2017 00:00
Orbit: 776 x 779 km, 86.4° (Epoch: 19 February)

Date Brightness Start Highest point End Pass type
(mag) Time Alt. Az. Time Alt. Az. Time Alt. Az.
20 Feb 7.8 20:02:02 12° ESE 20:02:02 12° ESE 20:02:58 10° ESE visible
20 Feb 7.7 21:42:23 29° WSW 21:42:23 29° WSW 21:45:42 10° SSW visible
21 Feb 6.1 21:06:30 56° NNW 21:07:34 76° W 21:12:47 10° S visible
22 Feb 6.2 20:29:08 10° NNE 20:34:07 48° E 20:39:07 10° SSE visible
23 Feb 7.1 19:56:46 10° NE 20:00:40 22° E 20:04:35 10° SE visible
23 Feb 8.3 21:37:15 10° NW 21:41:05 21° W 21:44:57 10° SW visible
24 Feb 7.0 21:02:40 10° NNW 21:07:38 46° W 21:12:37 10° SSW visible
25 Feb 5.9 20:28:59 10° N 20:34:10 79° E 20:39:24 10° S visible
26 Feb 6.6 19:56:02 10° NNE 20:00:43 35° E 20:05:26 10° SSE visible
26 Feb 9.0 21:38:56 10° WNW 21:41:09 13° W 21:43:23 10° WSW visible
27 Feb 7.9 21:03:16 10° NNW 21:07:42 29° W 21:12:09 10° SSW visible
28 Feb 6.4 20:29:05 10° N 20:34:14 64° W 20:39:25 10° S visible
01 Mar 6.1 19:55:41 10° NNE 20:00:47 57° E 20:05:54 10° SSE visible
